EW6934 Weather Reports


time (UTC)temp
C
wind
direction
speed
KPH
gust
KPH
rain 1hr
cm
rain 24hr
cm
rain mn
cm
humidity
%
barometer
mb
20260901080104 20 0 0.0 1.6 0.00 0.00 0.00 93 1020.9
20260901074605 20 0 0.0 0.0 0.00 0.00 0.00 93 1020.9
20260901073107 21 0 0.0 1.6 0.00 0.00 0.00 93 1021.0
20260901071557 21 0 0.0 1.6 0.00 0.00 0.00 93 1021.3
20260901070109 21 0 0.0 0.0 0.00 0.00 0.00 93 1021.5
20260901064614 21 0 0.0 0.0 0.00 0.00 0.00 93 1021.6
20260901063059 21 0 0.0 3.2 0.00 0.00 0.00 93 1021.6
20260901061558 21 0 0.0 1.6 0.00 0.00 0.00 93 1021.7
20260901060057 21 279 0.0 3.2 0.00 0.00 0.00 93 1021.8
20260901054604 21 0 0.0 1.6 0.00 0.00 0.00 92 1021.7
20260901053103 21 0 0.0 3.2 0.00 0.00 0.00 92 1021.8
20260901051604 21 0 0.0 3.2 0.00 0.00 0.00 91 1021.9
20260901050105 21 0 0.0 0.0 0.00 0.00 0.00 90 1021.9
20260901044603 22 0 0.0 0.0 0.00 0.00 0.00 90 1021.8
20260901043058 22 0 0.0 1.6 0.00 0.00 0.00 89 1021.8
20260901041558 22 0 0.0 3.2 0.00 0.00 0.00 88 1021.8
20260901040105 22 0 0.0 1.6 0.00 0.00 0.00 88 1021.7
20260901034600 22 0 0.0 1.6 0.00 0.00 0.00 87 1021.7
20260901033102 22 0 0.0 0.0 0.00 0.00 0.00 86 1021.6
20260901031555 23 0 0.0 0.0 0.00 0.00 0.00 85 1021.7
20260901030100 23 0 0.0 1.6 0.00 0.00 0.00 85 1021.7
20260901024601 23 341 0.0 1.6 0.00 0.00 0.00 85 1021.8
20260901023058 23 0 0.0 1.6 0.00 0.00 0.00 84 1021.7
20260901021602 23 0 0.0 0.0 0.00 0.00 0.00 84 1021.7
20260901014601 23 0 0.0 0.0 0.00 0.00 0.00 83 1021.2
20260901013116 24 0 0.0 3.2 0.00 0.00 0.00 82 1021.0
20260901011608 24 0 0.0 3.2 0.00 0.00 0.00 81 1020.8
20260901010059 25 0 0.0 3.2 0.00 0.00 0.00 80 1020.7
20260901004607 25 0 0.0 3.2 0.00 0.00 0.00 79 1020.4
20260901003059 25 0 0.0 0.0 0.00 0.00 0.00 77 1020.4
20260901001559 25 0 0.0 3.2 0.00 0.00 0.00 77 1020.5
20260901000107 26 341 1.6 3.2 0.00 0.00 0.00 76 1020.7
20260831234633 26 355 1.6 4.8 0.00 0.00 0.00 73 1020.6
20260831233100 27 279 1.6 12.9 0.00 0.00 0.00 69 1020.6
20260831231604 29 275 6.4 16.1 0.00 0.00 0.00 64 1020.7
20260831230054 31 284 1.6 4.8 0.00 0.00 0.00 55 1020.6
20260831224601 31 321 1.6 4.8 0.00 0.00 0.00 55 1020.6
20260831223101 30 266 0.0 4.8 0.00 0.00 0.00 55 1020.5
20260831221556 30 69 1.6 6.4 0.00 0.00 0.00 57 1020.5
20260831220055 30 345 1.6 6.4 0.00 0.00 0.00 57 1020.7
20260831214611 30 336 3.2 6.4 0.00 0.00 0.00 58 1020.9
20260831213103 31 324 1.6 9.7 0.00 0.00 0.00 60 1021.1
20260831211553 31 309 3.2 8.0 0.00 0.00 0.00 59 1021.0
20260831210100 31 98 3.2 8.0 0.00 0.00 0.00 56 1020.9
20260831204603 31 55 0.0 4.8 0.00 0.00 0.00 54 1020.9
20260831203101 31 113 1.6 11.3 0.00 0.00 0.00 57 1021.1
20260831201610 31 0 1.6 11.3 0.00 0.00 0.00 57 1021.2
20260831200056 30 77 6.4 12.9 0.00 0.00 0.00 56 1021.3
20260831194601 31 0 1.6 9.7 0.00 0.00 0.00 58 1021.5
20260831193129 31 286 3.2 9.7 0.00 0.00 0.00 56 1021.6
20260831191555 31 256 3.2 8.0 0.00 0.00 0.00 59 1021.6
20260831190057 30 265 3.2 8.0 0.00 0.00 0.00 58 1022.0
20260831184605 30 13 3.2 11.3 0.00 0.00 0.00 58 1022.2
20260831183103 30 281 0.0 9.7 0.00 0.00 0.00 60 1022.3
20260831181609 30 214 4.8 12.9 0.00 0.00 0.00 57 1022.4
20260831174559 30 355 3.2 9.7 0.00 0.00 0.00 62 1022.7
20260831173100 29 10 1.6 9.7 0.00 0.00 0.00 63 1022.8
20260831171607 29 315 6.4 14.5 0.00 0.00 0.00 63 1022.8
20260831170106 28 216 1.6 9.7 0.00 0.00 0.00 65 1023.0
20260831164611 28 317 3.2 11.3 0.00 0.00 0.00 67 1023.0
20260831163059 28 0 1.6 6.4 0.00 0.00 0.00 69 1023.1
20260831161608 28 247 3.2 8.0 0.00 0.00 0.00 70 1023.1
20260831160110 27 126 4.8 8.0 0.00 0.00 0.00 72 1023.1
20260831154629 27 233 1.6 9.7 0.00 0.00 0.00 74 1023.3
20260831153058 27 201 1.6 9.7 0.00 0.00 0.00 74 1023.4
20260831151555 26 229 4.8 11.3 0.00 0.00 0.00 77 1023.5
20260831150107 26 229 1.6 6.4 0.00 0.00 0.00 80 1023.5
20260831144603 26 219 3.2 8.0 0.00 0.00 0.00 80 1023.6
20260831143055 26 238 3.2 11.3 0.00 0.00 0.00 81 1023.5
20260831141555 26 175 3.2 6.4 0.00 0.00 0.00 81 1023.3
20260831134606 25 28 1.6 4.8 0.00 0.00 0.00 82 1023.2
20260831133058 25 295 1.6 4.8 0.00 0.00 0.00 84 1023.2
20260831131602 24 351 1.6 4.8 0.00 0.00 0.00 86 1023.3
20260831130109 23 293 0.0 4.8 0.00 0.00 0.00 87 1023.2
20260831124600 22 0 0.0 3.2 0.00 0.00 0.00 89 1023.2
20260831123059 22 321 0.0 6.4 0.00 0.00 0.00 91 1023.1
20260831121609 21 305 0.0 6.4 0.00 0.00 0.00 93 1023.1
20260831120100 21 285 1.6 4.8 0.00 0.00 0.00 94 1022.9
20260831114559 20 0 0.0 1.6 0.00 0.00 0.00 95 1022.9
20260831113105 20 0 0.0 3.2 0.00 0.00 0.00 95 1022.9
20260831111605 20 0 0.0 0.0 0.00 0.00 0.00 95 1022.7
20260831110100 20 0 0.0 0.0 0.00 0.00 0.00 95 1022.5
20260831104601 20 0 0.0 1.6 0.00 0.00 0.00 95 1022.4
20260831103056 20 311 0.0 3.2 0.00 0.00 0.00 95 1022.4
20260831101606 20 0 0.0 1.6 0.00 0.00 0.00 94 1022.3
20260831100114 20 0 0.0 1.6 0.00 0.00 0.00 94 1022.4
20260831094558 20 0 0.0 1.6 0.00 0.00 0.00 94 1022.3
20260831093102 20 0 0.0 1.6 0.00 0.00 0.00 93 1022.3
20260831091605 20 290 0.0 3.2 0.00 0.00 0.00 94 1022.1
20260831090118 20 0 0.0 3.2 0.00 0.00 0.00 94 1022.1
20260831084600 20 0 0.0 3.2 0.00 0.00 0.00 94 1022.2
20260831083113 20 0 0.0 3.2 0.00 0.00 0.00 94 1022.0
20260831081603 20 0 0.0 1.6 0.00 0.00 0.00 94 1022.0